This demonstration page uses our WeatherBlox Daily Observations layout. Learn more.

Left ArrowRight Arrow

34.74481, -87.66753

Hourly Observations for December 24, 2017

Temp ( °F °C ) Dew Point ( °F °C ) Humidity (%) Winds ( mph kmh ) Pressure ( in mb ) Visibility ( mi km ) Precip ( " mm )
12:53 am 00:53 Cloudy 42 5.6 36 2.2 79 79 N 5 7 30.16 1021 10 16 0.00 0.00
1:53 am 01:53 Cloudy 42 5.6 36 2.2 79 79 ENE 5 7 30.15 1021 10 16 0.00 0.00
2:53 am 02:53 Cloudy 42 5.6 36 2.2 79 79 E 3 6 30.15 1021 10 16 0.00 0.00
3:53 am 03:53 Cloudy 42 5.6 36 2.2 79 79 VRB 3 6 30.13 1020 10 16 0.00 0.00
4:53 am 04:53 Cloudy 42 5.6 36 2.2 79 79 SE 5 7 30.12 1020 10 16 0.00 0.00
5:53 am 05:53 Cloudy 42 5.6 36 2.2 79 79 S 3 6 30.12 1020 10 16 0.00 0.00
6:53 am 06:53 Cloudy 42 5.6 36 2.2 79 79 Calm 30.13 1020 10 16 0.00 0.00
7:53 am 07:53 Cloudy 42 5.6 36 2.2 79 79 W 3 6 30.14 1021 10 16 0.00 0.00
8:53 am 08:53 Cloudy 43 6.1 37 2.8 80 80 WNW 7 11 30.16 1021 10 16 0.00 0.00
9:53 am 09:53 Cloudy 43 6.1 37 2.8 80 80 W 6 9 30.14 1021 10 16 0.00 0.00
10:23 am 10:23 Cloudy 44 6.7 37 2.8 76 76 SW 6 9 30.15 1021 10 16 0.00 0.00
10:46 am 10:46 Cloudy 44 6.7 38 3.3 79 79 WSW 8 13 30.15 1021 10 16 0.00 0.00
10:53 am 10:53 Cloudy 44 6.7 38 3.3 79 79 WSW 10 17 30.14 1021 10 16 0.00 0.00
11:53 am 11:53 Cloudy 44 6.7 39 3.9 83 83 W 13 20 30.13 1020 9 14 0.00 0.00
12:51 pm 12:51 Cloudy with Mist and Fog 43 6 39 4 87 87 W 14 22 30.12 1020 5 8 0.00 0.00
12:53 pm 12:53 Cloudy with Mist and Fog 43 6.1 39 3.9 86 86 WNW 15 24 30.12 1020 5 8 0.00 0.00
1:40 pm 13:40 Cloudy with Light Rain 43 6.1 38 3.3 82 82 W 16 26 30.12 1020 6 10 0.01 0.25
1:48 pm 13:48 Cloudy 43 6 37 3 81 81 W 14 22 30.12 1020 8 13 0.01 0.25
1:53 pm 13:53 Cloudy 43 6.1 38 3.3 82 82 W 17 28 30.14 1021 9 14 0.01 0.25
2:22 pm 14:22 Cloudy with Mist and Fog 43 6.1 39 3.9 86 86 WNW 17 28 30.15 1021 4 6 0.00 0.00
2:40 pm 14:40 Cloudy with Light Rain 43 6.1 39 3.9 86 86 WNW 15 24 30.15 1021 3 5 0.00 0.03
2:53 pm 14:53 Cloudy with Light Rain 43 6.1 39 3.9 86 86 W 16 26 30.15 1021 7 11 0.00 0.03
3:23 pm 15:23 Mostly Cloudy 43 6.1 38 3.3 82 82 W 17 28 30.15 1021 10 16 0.00 0.03
3:38 pm 15:38 Mostly Cloudy 43 6.1 37 2.8 80 80 WNW 14 22 30.18 1022 10 16 0.00 0.03
3:53 pm 15:53 Mostly Cloudy 43 6.1 36 2.2 76 76 WNW 16 26 30.18 1022 10 16 0.00 0.03
4:31 pm 16:31 Cloudy 42 5.6 35 1.7 76 76 WNW 13 20 30.18 1022 10 16 0.00 0.00
4:53 pm 16:53 Mostly Cloudy 42 5.6 35 1.7 76 76 W 13 20 30.21 1023 10 16 0.00 0.00
5:23 pm 17:23 Cloudy 41 5 34 1.1 76 76 WNW 12 19 30.21 1023 10 16 0.00 0.03
5:53 pm 17:53 Cloudy 42 5.6 34 1.1 73 73 WNW 15 24 30.23 1024 10 16 0.00 0.03
6:20 pm 18:20 Cloudy with Light Rain 42 5.6 35 1.7 76 76 NW 10 17 30.24 1024 9 14 0.00 0.03
6:53 pm 18:53 Cloudy 40 4.4 34 1.1 79 79 NNW 10 17 30.27 1025 10 16 0.01 0.25
7:29 pm 19:29 Partly Cloudy 39 3.9 31 -0.6 73 73 NW 14 22 30.27 1025 10 16 0.00 0.00
7:53 pm 19:53 Mostly Cloudy 39 3.9 29 -1.7 67 67 WNW 13 20 30.30 1026 10 16 0.00 0.00
8:53 pm 20:53 Mostly Clear 37 2.8 27 -2.8 67 67 WNW 15 24 30.32 1027 10 16 0.00 0.00
9:53 pm 21:53 Partly Cloudy 34 1.1 23 -5 64 64 NW 15 24 30.35 1028 10 16 0.00 0.00
10:53 pm 22:53 Cloudy 34 1.1 23 -5 64 64 NNW 10 17 30.37 1028 10 16 0.00 0.00
11:02 pm 23:02 Mostly Cloudy 33 0.6 22 -5.6 64 64 NNW 12 19 30.39 1029 10 16 0.00 0.00
11:22 pm 23:22 Partly Cloudy 32 0 21 -6.1 64 64 NW 14 22 30.39 1029 10 16 0.00 0.00
11:53 pm 23:53 Clear 31 -0.6 20 -6.7 64 64 NW 13 20 30.39 1029 10 16 0.00 0.00

Powered by AerisWeather